Regional Weather Roundup
Issued by NWS Midland/Odessa, TX

Home | Current Version | Previous Version | Text Only | Print | Product List | Glossary On
Versions: 1 2 3 4 5 6 7 8 9 10 11 12 13 14 15 16 17 18 19 20 21 22 23 24 25 26 27 28 29 30 31 32 33 34 35 36 37 38 39 40 41 42 43 44 45 46 47 48 49 50
000
ASUS44 KMAF 240410
RWRMAF
MIDLAND AREA WEATHER ROUNDUP
NATIONAL WEATHER SERVICE MIDLAND TX
1000 PM CST TUE JAN 23 2018

...IN SOUTHWEST TEXAS AND SOUTHEAST NEW MEXICO...

CITY           SKY/WX    TMP DP  RH WIND       PRES   REMARKS
ALPINE         CLEAR     42  10  26 SE7       30.34R WCI  38
ANDREWS        FAIR      38   3  23 E5        30.32S WCI  35
ARTESIA        CLEAR     32  -2  23 S7        30.31R WCI  26
BIG SPRING     CLEAR     42   8  24 E9        30.34S WCI  37
CARLSBAD       CLEAR     30   1  29 CALM      30.29R
DRYDEN           N/A     44  14  29 NE6       30.29R
FORT STOCKTON  CLEAR     40  10  29 S8        30.30R WCI  34
GUAD PASS      CLEAR     40   2  20 NE24      30.29R WCI  29
HOBBS          CLEAR     32  -6  19 CALM      30.31R
LAMESA         MOCLDY    39   1  20 E14       30.33R WCI  31
MARFA            N/A     27   4  37 N5        30.29R WCI  22
MIDLAND AIRPK    N/A     45   6  19 E3        30.32S
MIDLAND INTL   CLEAR     41   5  22 E10       30.31R WCI  35
ODESSA         CLEAR     38   4  24 E10       30.31R WCI  31
PECOS          CLEAR     39   6  25 E3        30.30R
PRESIDIO       FAIR      52  12  20 NE15G24   30.25R
SEMINOLE       CLEAR     37   1  22 CALM      30.33R
SNYDER         CLEAR     40   8  25 E9        30.34R WCI  35
WINK           CLEAR     37   0  21 E8        30.29R WCI  31
$$
...OTHER STATIONS IN TEXAS...

CITY           SKY/WX    TMP DP  RH WIND       PRES   REMARKS
ABILENE        CLEAR     38  13  35 SE3       30.35R
AMARILLO       CLEAR     32  11  41 E9        30.34S WCI  24
AUSTIN         PTCLDY    35  30  82 CALM      30.35R
BROWNSVILLE    CLOUDY    58  51  78 N8        30.28S
CORPUS CHRISTI CLOUDY    53  33  46 CALM      30.32R
DALLAS FTW     PTCLDY    48  20  32 NW6       30.33R
DEL RIO        CLEAR     49  18  29 E6        30.31R
EL PASO        CLEAR     43   0  16 N12       30.26R WCI  37
HOUSTON INT    MOCLDY    48  29  47 NW5       30.32R
LUBBOCK        CLEAR     34   2  25 E6        30.32R WCI  29
SAN ANGELO     CLEAR     40   8  26 SE3       30.32R
SAN ANTONIO    CLOUDY    44  28  53 NW5       30.34R
WACO           CLEAR     33  22  63 CALM      30.35R
WICHITA FALLS  CLEAR     30  22  72 NW7       30.31R WCI  23
$$
...OTHER LOCATIONS IN NEW MEXICO...

CITY           SKY/WX    TMP DP  RH WIND       PRES   REMARKS
ALAMOGORDO     CLEAR     34  -2  21 NE5       30.29R WCI  30
ALBUQUERQUE    CLEAR     29  10  45 CALM      30.34R
CANNON AFB     CLEAR     28   3  34 NE13      30.32R WCI  17
CLOVIS         CLEAR     25   5  42 NE10      30.32S WCI  15
HOLLOMAN AFB   CLEAR     28  -6  22 NE9       30.31R WCI  19
ROSWELL        CLEAR     31  -1  25 W7        30.29R WCI  24
RUIDOSO        NOT AVBL
SANTA FE       CLEAR     19  13  77 CALM      30.32R
TRUTH OR CONSE CLEAR     39   3  22 NW8       30.29R WCI  33
TUCUMCARI      CLEAR     25   2  37 CALM      30.32R
$$



USA.gov is the U.S. government's official web portal to all federal, state and local government web resources and services.